Regional Weather Roundup
Issued by NWS

Home | Current Version | Previous Version | Text Only | Print | Product List | Glossary On
Versions: 1 2 3 4 5 6 7 8 9 10 11 12 13 14 15 16 17 18 19 20 21 22 23 24 25 26 27 28 29 30 31 32 33 34 35 36 37 38 39 40 41 42 43 44 45 46 47 48 49 50
000
ASUS43 KDTX 280601
RWRMI
MICHIGAN HOURLY REGIONAL WEATHER ROUNDUP
NATIONAL WEATHER SERVICE DETROIT/PONTIAC MI
100 AM EST FRI NOV 28 2014

NOTE: "FAIR" INDICATES FEW OR NO CLOUDS BELOW 12,000 FEET WITH NO
SIGNIFICANT WEATHER AND/OR OBSTRUCTION TO VISIBILITY.

MIZ047>049-052>055-059>063-066>070-074>076-081>083-280700-
SOUTHEAST LOWER MICHIGAN

CITY           SKY/WX    TMP DP  RH WIND       PRES   REMARKS
ADRIAN         CLEAR     19  11  70 N6        30.33S WCI  11
6HR MIN TEMP:  19; 6HR MAX TEMP:  28; 6HR PCP: TRACE;

ALMA           CLEAR     16   9  75 W5        30.31F WCI   9
ANN ARBOR      CLOUDY    21   8  57 NW8       30.30S WCI  11
BAD AXE        CLOUDY    20  12  73 NW8       30.27F WCI  10
6HR MIN TEMP:  20; 6HR MAX TEMP:  24;

CARO           CLOUDY    21  10  63 W10       30.29F WCI  10
DETROIT CITY   CLOUDY    25   8  48 NW8       30.30S WCI  16
6HR MIN TEMP:  24; 6HR MAX TEMP:  31;

DETROIT        CLOUDY    22  12  65 W6        30.31S WCI  14
6HR MIN TEMP:  21; 6HR MAX TEMP:  29; 6HR PCP: TRACE;

FLINT          PTCLDY    19   8  62 NW7       30.30F WCI  10
6HR MIN TEMP:  19; 6HR MAX TEMP:  28;

GROSSE ILE     CLEAR     23  12  63 W8        30.30S WCI  14
HILLSDALE      MOCLDY    20  13  74 NW6       30.29F WCI  12
6HR MIN TEMP:  19; 6HR MAX TEMP:  27;

HOWELL         CLOUDY    20   7  58 NW8G16    30.29S WCI  10
6HR MIN TEMP:  20; 6HR MAX TEMP:  26;


CITY           SKY/WX    TMP DP  RH WIND       PRES   REMARKS
JACKSON        PTCLDY    17   7  64 W7        30.31S WCI   8
6HR MIN TEMP:  16; 6HR MAX TEMP:  26; 6HR PCP: TRACE;

LAMBERTVILLE   CLEAR     21  16  79 W3        30.33S
LANSING        MOCLDY    17   7  64 NW6       30.32F WCI   9
6HR MIN TEMP:  17; 6HR MAX TEMP:  25;

LAPEER         CLOUDY    21   7  55 W7        30.28F WCI  12
MASON          CLOUDY    21  10  63 NW10      30.31S WCI   9
MONROE         CLEAR     19  14  79 W5        30.30F WCI  13
MT. CLEMENS    MOCLDY    23   8  53 NW8       30.27S WCI  13
6HR MIN TEMP:  22; 6HR MAX TEMP:  28; 6HR PCP: TRACE;

PONTIAC        CLOUDY    20   6  55 NW14      30.27S WCI   7
6HR MIN TEMP:  20; 6HR MAX TEMP:  26; 6HR PCP: TRACE;

PORT HOPE        N/A     20   8  60 NW14G22   30.25F WCI   7
6HR MIN TEMP:  20; 6HR MAX TEMP:  26;

PORT HURON     CLOUDY    21  10  63 NW8       30.28F WCI  12
TRI CITIES     CLOUDY    20   9  62 W9        30.31F WCI   9
6HR MIN TEMP:  20; 6HR MAX TEMP:  24;

TROY           CLOUDY    25   8  49 W15       30.31R WCI  12
SAGINAW HB     CLOUDY    21  10  63 W8        30.30F WCI  12
$$
MIZ043>046-050>051-056>058-064>065-071>073-077>080-280700-
SOUTHWEST LOWER MICHIGAN

CITY           SKY/WX    TMP DP  RH WIND       PRES   REMARKS
BATTLE CREEK   CLOUDY    22   9  57 NW6       30.32F WCI  14
6HR MIN TEMP:  22; 6HR MAX TEMP:  26; 6HR PCP: TRACE;

BENTON HARBOR  CLOUDY    24  14  65 W5        30.35S WCI  18
6HR MIN TEMP:  24; 6HR MAX TEMP:  25; 6HR PCP: TRACE;

BIG RAPIDS     CLOUDY    17  15  92 CALM      30.29S
6HR MIN TEMP:  17; 6HR MAX TEMP:  19;

COLDWATER      CLOUDY    23  17  77 W5        30.32S WCI  17
6HR MIN TEMP:  23; 6HR MAX TEMP:  27;

FREMONT        CLOUDY    18  14  84 CALM      30.32S
HOLLAND        FLURRIES  21  14  74 SE3       30.35S
6HR MIN TEMP:  21; 6HR MAX TEMP:  23; 6HR PCP: TRACE;

GRAND RAPIDS   CLOUDY    18  12  77 CALM      30.33F
6HR MIN TEMP:  17; 6HR MAX TEMP:  23; 6HR PCP: TRACE;

IONIA          FAIR      18  11  73 W6        30.32R WCI  10
KALAMAZOO      CLOUDY    21  16  81 W3        30.34S
6HR MIN TEMP:  21; 6HR MAX TEMP:  24; 6HR PCP: TRACE;

LUDINGTON      CLOUDY    19  15  83 CALM      30.32F
6HR MIN TEMP:  19; 6HR MAX TEMP:  20;

MARSHALL       CLOUDY    19  11  71 CALM      30.31F
MOUNT PLEASANT CLEAR     17  10  71 W3        30.29F
6HR MIN TEMP:  17; 6HR MAX TEMP:  22;

MUSKEGON       FLURRIES  21  13  71 SE3       30.34S
6HR MIN TEMP:  21; 6HR MAX TEMP:  23; 6HR PCP: TRACE;

SOUTH HAVEN    CLOUDY    25  15  65 CALM      30.35S
$$
MIZ016>042-280700-
NORTHERN LOWER MICHIGAN

CITY           SKY/WX    TMP DP  RH WIND       PRES   REMARKS
ALPENA         MOCLDY    15   7  70 W7        30.24F WCI   5
6HR MIN TEMP:  15; 6HR MAX TEMP:  17;

BEAVER ISLAND  CLOUDY    19  11  74 W7        30.28S WCI   9
6HR MIN TEMP:  18; 6HR MAX TEMP:  19;

BELLAIRE       LGT SNOW  18  15  87 CALM      30.30S
CADILLAC       CLOUDY    13  10  87 W3        30.25S
CHARLEVOIX     FLURRIES  19  11  69 NW8       30.31R WCI   9
6HR MIN TEMP:  19; 6HR MAX TEMP:  19;

FRANKFORT      CLOUDY    19  12  75 CALM      30.31F
GAYLORD        CLOUDY    12   9  87 W6        30.22R WCI   3
6HR MIN TEMP:  12; 6HR MAX TEMP:  16; 6HR PCP:  0.01;

GRAYLING       LGT SNOW  16  12  86 W3        30.26R
6HR MIN TEMP:  15; 6HR MAX TEMP:  17;

HARBOR SPRINGS CLOUDY    17  10  74 NW3       30.27S
HOUGHTON LAKE  FLURRIES  16  12  84 W9        30.25F WCI   4
6HR MIN TEMP:  15; 6HR MAX TEMP:  17; 6HR PCP: TRACE;

MANISTEE       CLOUDY    19  12  73 SE3       30.31F
OSCODA         PTCLDY    13   6  73 W3        30.26F
PELLSTON       CLOUDY    17   9  70 W5        30.27S WCI  10
6HR MIN TEMP:  15; 6HR MAX TEMP:  18; 6HR PCP: TRACE;

ROGERS CITY    LGT SNOW  17  13  86 W9        30.25F WCI   5
TRAVERSE CITY  CLOUDY    17   9  70 W7        30.30S WCI   8
6HR MIN TEMP:  17; 6HR MAX TEMP:  21; 6HR PCP: TRACE;

$$
MIZ007>008-015-280700-
EASTERN UPPER MICHIGAN

CITY           SKY/WX    TMP DP  RH WIND       PRES   REMARKS
KINROSS        CLOUDY     1   0  92 CALM      30.26R
6HR MIN TEMP:   1; 6HR MAX TEMP:  16;

MACKINAC ISLAN MOCLDY    17  10  75 NW10G16   30.25R WCI   4
6HR MIN TEMP:  15; 6HR MAX TEMP:  17;

NEWBERRY       FLURRIES   9   8  95 W12       30.25R WCI  -6
S. S. MARIE    CLEAR      1  -5  75 CALM      30.27R
6HR MIN TEMP:   0; 6HR MAX TEMP:  14;

MUNISING         N/A     13   5  70 SW5       30.28F WCI   5
6HR MIN TEMP:  13; 6HR MAX TEMP:  21; 6HR PCP:  0.01;

$$
MIZ004>006-011>014-085-280700-
CENTRAL UPPER MICHIGAN

CITY           SKY/WX    TMP DP  RH WIND       PRES   REMARKS
MANISTIQUE     MOCLDY     7   2  80 W9        30.29F WCI  -6
ESCANABA       MOCLDY     3   0  85 NW5       30.31R WCI  -6
6HR MIN TEMP:   0; 6HR MAX TEMP:  10;

MENOMINEE      PTCLDY     0  -2  92 NW3       30.33S
6HR MIN TEMP:  -2; 6HR MAX TEMP:   9;

SAWYER-GWINN   MOCLDY     1  -3  84 W3        30.25S
$$
MIZ001>003-009>011-084-280700-
WESTERN UPPER MICHIGAN

CITY           SKY/WX    TMP DP  RH WIND       PRES   REMARKS
IRON MOUNTAIN  PTCLDY    -5 -10  79 CALM      30.27F
6HR MIN TEMP:  -8; 6HR MAX TEMP:   3;

HOUGHTON       LGT SNOW   6   3  87 CALM      30.23F FOG
6HR MIN TEMP:   6; 6HR MAX TEMP:  10; 6HR PCP: TRACE;

COPPER HARBOR    N/A     12   6  77 SW7       30.27F WCI   1
6HR MIN TEMP:  12; 6HR MAX TEMP:  17; 6HR PCP:  0.02;

IRONWOOD       MOCLDY    -9  -9 100 CALM      30.22F
6HR MIN TEMP:  -9; 6HR MAX TEMP:  -2;

$$

ABBREVIATIONS USED IN REMARKS
   TC - TEMPERATURE IN CELSIUS
  WCI - WIND CHILL INDEX
   HX - HEAT INDEX
  VSB - VISIBILITY



USA.gov is the U.S. government's official web portal to all federal, state and local government web resources and services.